Other Public Products
Issued by NWS Charleston, SC

Current Version | Previous Version | Graphics & Text | Print | Product List | Glossary On
Versions: 1 2 3 4 5 6 7 8 9 10 11 12 13 14 15 16 17 18 19 20 21 22 23 24 25 26 27 28 29 30 31 32 33 34 35 36 37 38 39 40 41 42 43 44 45 46 47 48 49 50
759
FPUS82 KCHS 211827
OPUCHS

TEST...KCHS/KSAV Gateway Observations...TEST
National Weather Service Charleston SC
100 PM EST WED FEB 21 2018

NOTE: "fair" indicates few or no clouds below 12,000 feet with no
significant weather and/or obstructions to visibility.

SCZ050-WAZ558-NCZ071-TXZ119-213-PAZ071-DCZ001-FLZ074-172-MI076-
NYZ176-178-MAZ016-IL014-TNZ027-NJZ106-GAZ044-MD014-211900-

...Gateway Observations for Charleston International...

CITY           SKY/WX    TMP DP  RH WIND       PRES   REMARKS
Chas Airport   PTSUNNY   77  67  71 S12       30.44F
6HR MIN TEMP:  62; 6HR MAX TEMP:  80;

Seattle        CLOUDY    30  15  53 SE7       30.31F WCI  23
6HR MIN TEMP:  26; 6HR MAX TEMP:  31;

Charlotte      CLOUDY    75  64  68 SW10      30.44F
6HR MIN TEMP:  65; 6HR MAX TEMP:  76;

Dallas DFW     LGT RAIN  36  33  89 N17       30.29R FOG     WCI  26
6HR MIN TEMP:  35; 6HR MAX TEMP:  37; 6HR PCP:  0.09;

Dallas Love    LGT RAIN  36  33  89 N17G24    30.29R FOG     WCI  26
6HR MIN TEMP:  34; 6HR MAX TEMP:  37; 6HR PCP:  0.13;

Philladelphia  PTSUNNY   74  60  61 SW17G26   30.28F
6HR MIN TEMP:  58; 6HR MAX TEMP:  74;

Wash National  FAIR      78  63  59 S20G28    30.29F
6HR MIN TEMP:  57; 6HR MAX TEMP:  78;

Baltimore      FAIR      77  62  59 SW17G24   30.27F
6HR MIN TEMP:  61; 6HR MAX TEMP:  77;

Miami          PTSUNNY   81  69  67 E21G26    30.33F
6HR MIN TEMP:  75; 6HR MAX TEMP:  83;

Detroit        CLOUDY    39  34  82 N8        30.47R WCI  33
6HR MIN TEMP:  38; 6HR MAX TEMP:  42; 6HR PCP:  0.12;

Newark         FAIR      76  59  55 SW18G25   30.22F
6HR MIN TEMP:  61; 6HR MAX TEMP:  77;

Laguardia      FAIR      74  59  59 SW12G22   30.22F
6HR MIN TEMP:  55; 6HR MAX TEMP:  74;

J F K          FAIR      59  52  77 S12       30.25F
6HR MIN TEMP:  45; 6HR MAX TEMP:  61;

Boston Logan   PTSUNNY   69  57  65 S20       30.13F
6HR MIN TEMP:  56; 6HR MAX TEMP:  70;

Ft. Lauderdale FAIR      81  71  71 E20       30.33F
6HR MIN TEMP:  75; 6HR MAX TEMP:  82;

Chicago O`Hare CLOUDY    31  19  61 N9        30.56S WCI  23
6HR MIN TEMP:  27; 6HR MAX TEMP:  31;

Chicago Midway CLOUDY    32  21  64 NE12      30.56S WCI  23
6HR MIN TEMP:  29; 6HR MAX TEMP:  33;

Houston Bush   TSTM      58  57  97 N12       30.08F FOG
6HR MIN TEMP:  57; 6HR MAX TEMP:  75; 6HR PCP:  0.05;

Houston Hobby  CLOUDY    76  74  93 S20G26    30.05F
6HR MIN TEMP:  69; 6HR MAX TEMP:  75; 6HR PCP:  0.02;

Nashville      CLOUDY    58  55  90 N12G21    30.34S
6HR MIN TEMP:  58; 6HR MAX TEMP:  74; 6HR PCP:  0.24;

Atlanta        CLOUDY    71  67  87 S8        30.40F
6HR MIN TEMP:  67; 6HR MAX TEMP:  71; 6HR PCP: TRACE;


$$

GAZ044-118-TXZ119-213-NCZ071-DCZ001-MDZ014-506-PAZ021-071-NJZ106-
NYZ176-178-MAZ106-OHZ011-021-055-MIZ076-KYZ091-ILZ014-INZ047-
MNZ060-ONZ431-211900-

...Gateway Observations for Savannah International...

CITY           SKY/WX    TMP DP  RH WIND       PRES   REMARKS
Savannah Arpt  PTSUNNY   81  67  62 SE15      30.42F
6HR MIN TEMP:  63; 6HR MAX TEMP:  83; 6HR PCP:  0.01;

Atlanta        CLOUDY    71  67  87 S8        30.40F
6HR MIN TEMP:  67; 6HR MAX TEMP:  71; 6HR PCP: TRACE;

Charlotte      CLOUDY    75  64  68 SW10      30.44F
6HR MIN TEMP:  65; 6HR MAX TEMP:  76;

Dallas DFW     LGT RAIN  36  33  89 N17       30.29R FOG     WCI  26
6HR MIN TEMP:  35; 6HR MAX TEMP:  37; 6HR PCP:  0.09;

Houston Bush   TSTM      58  57  97 N12       30.08F FOG
6HR MIN TEMP:  57; 6HR MAX TEMP:  75; 6HR PCP:  0.05;

Wash National  FAIR      78  63  59 S20G28    30.29F
6HR MIN TEMP:  57; 6HR MAX TEMP:  78;

Wash Dulles    FAIR      77  62  59 SW16G25   30.29F
6HR MIN TEMP:  59; 6HR MAX TEMP:  77;

Baltimore      FAIR      77  62  59 SW17G24   30.27F
6HR MIN TEMP:  61; 6HR MAX TEMP:  77;

Philadelphia   PTSUNNY   74  60  61 SW17G26   30.28F
6HR MIN TEMP:  58; 6HR MAX TEMP:  74;

Newark         FAIR      76  59  55 SW18G25   30.22F
6HR MIN TEMP:  61; 6HR MAX TEMP:  77;

Laguardia      FAIR      74  59  59 SW12G22   30.22F
6HR MIN TEMP:  55; 6HR MAX TEMP:  74;

J F K          FAIR      59  52  77 S12       30.25F
6HR MIN TEMP:  45; 6HR MAX TEMP:  61;

Boston         PTSUNNY   69  57  65 S20       30.13F
6HR MIN TEMP:  56; 6HR MAX TEMP:  70;

Pittsburg      DRIZZLE   61  53  75 NW10      30.31R
6HR MIN TEMP:  61; 6HR MAX TEMP:  73; 6HR PCP: TRACE;

Akron          LGT RAIN  43  39  86 N15       30.38R
6HR MIN TEMP:  43; 6HR MAX TEMP:  66; 6HR PCP:  0.06;

Cleveland      CLOUDY    39  37  92 N16       30.47R WCI  30
6HR MIN TEMP:  39; 6HR MAX TEMP:  57; 6HR PCP:  0.21;

Cincinnati     LGT RAIN  47  47 100 N13       30.40S
6HR MIN TEMP:  47; 6HR MAX TEMP:  57; 6HR PCP:  0.17;

Columbus       DRIZZLE   48  48  99 N13       30.39R
Detroit        CLOUDY    39  34  82 N8        30.47R WCI  33
6HR MIN TEMP:  38; 6HR MAX TEMP:  42; 6HR PCP:  0.12;

Chicago O`Hare CLOUDY    31  19  61 N9        30.56S WCI  23
6HR MIN TEMP:  27; 6HR MAX TEMP:  31;

Minneapolis    FAIR      15   4  61 SW7       30.64R WCI   5
6HR MIN TEMP:   2; 6HR MAX TEMP:  15;

Indianapolis   LGT RAIN  38  35  89 N14       30.45F WCI  30
6HR MIN TEMP:  37; 6HR MAX TEMP:  41; 6HR PCP:  0.15;

Toronto Canada NOT AVBL

$$




USA.gov is the U.S. government's official web portal to all federal, state and local government web resources and services.